FW4314 Weather Reports


time (UTC)temp
F
wind
direction
speed
knots
gust
knots
rain 1hr
in
rain 24hr
in
rain mn
in
humidity
%
barometer
mb
20260510020554 57 101 2.6 7.0 0.00 0.04 0.04 83 1011.4
20260510015521 57 105 3.5 7.0 0.00 0.04 0.04 83 1011.4
20260510014529 57 102 7.0 8.7 0.00 0.04 0.04 83 1011.4
20260510013528 57 114 6.1 7.8 0.00 0.04 0.04 82 1012.4
20260510012604 57 112 4.3 8.7 0.00 0.04 0.04 81 1012.4
20260510011554 57 102 3.5 7.0 0.00 0.04 0.04 80 1012.4
20260510010532 57 109 4.3 7.0 0.00 0.04 0.04 80 1012.4
20260510005550 57 94 2.6 6.1 0.00 0.04 0.04 79 1012.4
20260510004520 58 108 2.6 5.2 0.04 0.04 0.04 79 1012.4
20260510003529 58 85 3.5 5.2 0.04 0.04 0.04 79 1012.4
20260510002527 58 102 1.7 5.2 0.04 0.04 0.04 79 1012.4
20260510001545 58 96 4.3 7.8 0.04 0.04 0.04 79 1012.4
20260510000523 58 102 5.2 9.6 0.04 0.04 0.04 79 1012.4
20260509235521 58 110 6.1 9.6 0.04 0.04 0.04 79 1013.2
20260509234523 58 119 8.7 12.2 0.00 0.00 0.00 78 1013.4
20260509233525 58 119 7.0 10.4 0.00 0.00 0.00 77 1013.4
20260509232529 59 124 11.3 18.2 0.00 0.00 0.00 77 1013.4
20260509231547 59 137 8.7 13.0 0.00 0.00 0.00 75 1013.4
20260509230525 59 131 9.6 15.6 0.00 0.00 0.00 73 1013.4
20260509225523 60 119 8.7 13.9 0.00 0.00 0.00 72 1013.4
20260509224523 60 113 9.6 14.8 0.00 0.00 0.00 69 1013.4
20260509223522 60 117 10.4 15.6 0.00 0.00 0.00 66 1012.4
20260509222531 61 127 10.4 19.1 0.00 0.00 0.00 63 1012.4
20260509221521 61 126 8.7 14.8 0.00 0.00 0.00 59 1012.4
20260509220520 61 121 7.8 12.2 0.00 0.00 0.00 56 1012.4
20260509215525 61 110 5.2 7.8 0.00 0.00 0.00 55 1012.4
20260509214523 61 104 5.2 8.7 0.00 0.00 0.00 54 1012.4
20260509213521 61 97 0.0 1.7 0.00 0.00 0.00 54 1012.4
20260509212522 61 0.0 0.0 0.00 0.00 0.00 54 1012.4
20260509211532 61 0.0 0.0 0.00 0.00 0.00 54 1012.4
20260509210526 61 107 0.0 1.7 0.00 0.00 0.00 54 1012.4
20260509205528 61 50 0.9 2.6 0.00 0.00 0.00 54 1012.4
20260509204520 61 0.0 0.0 0.00 0.00 0.00 54 1012.4
20260509203544 61 0.0 0.0 0.00 0.00 0.00 54 1012.4
20260509202541 61 0.0 0.0 0.00 0.00 0.00 53 1012.4
20260509201520 61 0.0 0.0 0.00 0.00 0.00 53 1012.4
20260509200549 62 0.0 0.0 0.00 0.00 0.00 52 1012.4
20260509195527 62 0.0 0.0 0.00 0.00 0.00 52 1011.6
20260509194524 62 80 0.0 3.5 0.00 0.00 0.00 52 1011.4
20260509193530 63 0.0 0.0 0.00 0.00 0.00 51 1011.4
20260509192544 63 75 0.0 3.5 0.00 0.00 0.00 51 1011.4
20260509191543 64 78 0.0 3.5 0.00 0.00 0.00 50 1011.4
20260509190520 64 80 0.0 2.6 0.00 0.00 0.00 49 1011.4
20260509185531 65 78 0.0 1.7 0.00 0.00 0.00 49 1012.1
20260509184525 65 78 0.0 3.5 0.00 0.00 0.00 48 1012.4
20260509183523 65 80 0.9 4.3 0.00 0.00 0.00 47 1012.4
20260509182526 66 90 1.7 6.1 0.00 0.00 0.00 47 1012.4
20260509181524 66 96 3.5 6.1 0.00 0.00 0.00 47 1012.4
20260509180522 66 97 4.3 7.8 0.00 0.00 0.00 46 1012.4
20260509175520 67 103 4.3 7.0 0.00 0.00 0.00 46 1011.6
20260509174547 67 99 4.3 7.8 0.00 0.00 0.00 46 1011.4
20260509173531 68 102 5.2 9.6 0.00 0.00 0.00 46 1011.4
20260509172520 68 108 5.2 7.8 0.00 0.00 0.00 46 1011.4
20260509171529 68 105 5.2 11.3 0.00 0.00 0.00 46 1011.4
20260509170524 69 85 5.2 9.6 0.00 0.00 0.00 47 1011.4
20260509165523 69 76 4.3 9.6 0.00 0.00 0.00 47 1011.4
20260509164520 69 86 3.5 7.0 0.00 0.00 0.00 47 1011.4
20260509163532 70 92 1.7 4.3 0.00 0.00 0.00 46 1011.4
20260509162522 70 75 4.3 7.8 0.00 0.00 0.00 44 1012.2
20260509161530 70 82 6.1 9.6 0.00 0.00 0.00 44 1012.4
20260509160547 71 77 3.5 6.1 0.00 0.00 0.00 44 1012.4
20260509155525 71 96 7.0 10.4 0.00 0.00 0.00 43 1012.4
20260509154528 71 100 5.2 8.7 0.00 0.00 0.00 42 1012.4
20260509153524 71 123 7.8 9.6 0.00 0.00 0.00 42 1012.4
20260509152522 72 111 5.2 11.3 0.00 0.00 0.00 42 1012.4
20260509151530 72 112 7.0 10.4 0.00 0.00 0.00 42 1012.4
20260509150528 73 100 9.6 13.0 0.00 0.00 0.00 41 1012.4
20260509145526 73 105 5.2 9.6 0.00 0.00 0.00 42 1012.4
20260509144524 74 102 8.7 14.8 0.00 0.00 0.00 41 1012.4
20260509143522 74 97 7.8 13.0 0.00 0.00 0.00 42 1012.4
20260509142520 74 105 7.0 9.6 0.00 0.00 0.00 42 1012.4
20260509141519 74 101 9.6 13.0 0.00 0.00 0.00 41 1012.4
20260509140521 74 96 7.8 12.2 0.00 0.00 0.00 41 1013.4
20260509135528 75 99 7.8 12.2 0.00 0.00 0.00 41 1013.4
20260509134526 75 102 8.7 11.3 0.00 0.00 0.00 41 1013.4
20260509133525 75 93 7.8 14.8 0.00 0.00 0.00 42 1013.4
20260509132523 75 101 7.8 14.8 0.00 0.00 0.00 42 1013.4
20260509131520 74 99 7.8 12.2 0.00 0.00 0.00 43 1013.4
20260509130526 74 105 7.0 10.4 0.00 0.00 0.00 44 1013.4
20260509125525 74 107 6.1 11.3 0.00 0.00 0.00 44 1013.4
20260509124533 75 112 5.2 8.7 0.00 0.00 0.00 44 1013.4
20260509123526 75 118 6.1 9.6 0.00 0.00 0.00 43 1013.4
20260509122524 75 106 5.2 8.7 0.00 0.00 0.00 44 1013.4
20260509121524 75 117 4.3 9.6 0.00 0.00 0.00 45 1013.4
20260509120520 74 137 10.4 16.5 0.00 0.00 0.00 44 1013.4
20260509115553 74 128 8.7 12.2 0.00 0.00 0.00 45 1014.2
20260509114532 74 124 11.3 16.5 0.00 0.00 0.00 45 1014.4
20260509113524 75 115 9.6 21.7 0.00 0.00 0.00 44 1014.4
20260509112521 75 104 7.0 11.3 0.00 0.00 0.00 45 1014.4
20260509111524 74 128 8.7 13.9 0.00 0.00 0.00 45 1014.4
20260509110522 74 130 8.7 13.9 0.00 0.00 0.00 46 1014.4
20260509105521 74 135 7.8 14.8 0.00 0.00 0.00 47 1014.4
20260509104524 74 129 5.2 11.3 0.00 0.00 0.00 49 1014.4
20260509103523 74 146 7.8 12.2 0.00 0.00 0.00 48 1014.4
20260509102529 74 127 8.7 16.5 0.00 0.00 0.00 48 1013.7
20260509101537 74 126 6.1 7.8 0.00 0.00 0.00 50 1013.4
20260509100526 73 108 7.0 13.0 0.00 0.00 0.00 50 1013.4
20260509095523 73 136 7.0 13.0 0.00 0.00 0.00 52 1013.4
20260509094541 72 102 5.2 12.2 0.00 0.00 0.00 53 1013.4
20260509093524 72 95 6.1 10.4 0.00 0.00 0.00 54 1013.4
20260509092531 71 111 7.0 13.0 0.00 0.00 0.00 54 1013.4
20260509091526 71 100 6.1 12.2 0.00 0.00 0.00 56 1013.4
20260509090528 70 102 7.0 12.2 0.00 0.00 0.00 56 1013.4
20260509085525 70 103 6.1 11.3 0.00 0.00 0.00 56 1013.4
20260509084523 69 106 5.2 7.8 0.00 0.00 0.00 59 1013.4
20260509083545 69 101 5.2 11.3 0.00 0.00 0.00 60 1014.4
20260509082539 69 95 5.2 9.6 0.00 0.00 0.00 62 1014.4
20260509081551 68 86 3.5 7.8 0.00 0.00 0.00 65 1014.4
20260509080529 67 97 1.7 5.2 0.00 0.00 0.00 67 1014.4
20260509075527 67 80 1.7 4.3 0.00 0.00 0.00 69 1014.4
20260509074530 66 97 2.6 7.8 0.00 0.00 0.00 70 1014.4
20260509073526 65 0.0 0.0 0.00 0.00 0.00 71 1014.4
20260509072522 64 0.0 0.0 0.00 0.00 0.00 73 1014.4
20260509071519 63 57 0.0 2.6 0.00 0.00 0.00 73 1014.4
20260509070531 63 40 0.9 2.6 0.00 0.00 0.00 75 1014.4
20260509065529 62 62 0.9 4.3 0.00 0.00 0.00 76 1014.4
20260509064547 61 56 0.9 3.5 0.00 0.00 0.00 77 1014.4
20260509063526 60 66 0.0 3.5 0.00 0.00 0.00 78 1014.4
20260509062519 59 84 0.9 3.5 0.00 0.00 0.00 78 1014.4
20260509061521 58 76 1.7 5.2 0.00 0.00 0.00 79 1014.4
20260509060519 57 76 0.9 4.3 0.00 0.00 0.00 79 1014.4
20260509055533 57 75 1.7 5.2 0.00 0.00 0.00 79 1014.4
20260509054543 56 66 0.0 3.5 0.00 0.00 0.00 79 1014.4
20260509053521 56 0.0 0.0 0.00 0.00 0.00 79 1014.4
20260509052526 55 0.0 0.0 0.00 0.00 0.00 80 1014.4
20260509051538 55 0.0 0.0 0.00 0.00 0.00 80 1014.4
20260509050521 55 90 0.0 0.0 0.00 0.00 0.00 80 1014.4
20260509045600 54 0.0 0.0 0.00 0.00 0.00 80 1014.4
20260509044523 54 0.0 0.0 0.00 0.00 0.00 80 1014.4
20260509043530 54 90 0.0 3.5 0.00 0.00 0.00 79 1014.4
20260509042530 54 0.0 0.0 0.00 0.00 0.00 79 1014.4
20260509041526 54 0.0 0.0 0.00 0.00 0.00 79 1014.4
20260509040524 54 68 0.0 2.6 0.00 0.00 0.00 79 1014.4
20260509035522 54 0.0 0.0 0.00 0.00 0.00 79 1014.4
20260509034520 54 0.0 0.0 0.00 0.00 0.00 79 1014.4
20260509033521 54 0.0 0.0 0.00 0.00 0.00 78 1014.4
20260509032519 54 113 0.0 1.7 0.00 0.00 0.00 78 1014.4
20260509031544 54 100 0.0 1.7 0.00 0.00 0.00 78 1014.4
20260509030528 54 90 0.0 0.0 0.00 0.00 0.00 77 1014.4
20260509025546 54 102 0.9 2.6 0.00 0.00 0.00 77 1014.4
20260509024522 54 0.0 0.0 0.00 0.00 0.00 77 1014.4
20260509023520 54 90 0.0 0.0 0.00 0.00 0.00 76 1014.4
20260509022524 55 90 0.0 0.0 0.00 0.00 0.00 76 1014.4
20260509021529 55 0.0 0.0 0.00 0.00 0.00 75 1014.4